Newport, AR

2:26 PM CDT on July 27, 2017 (GMT -0500)
Newport

Weather History for KM19 - October, 2012

Change the Weather History Date:

Sunday, October 7, 2012

  Actual Average (KBVX) Record (KBVX)
Temperature  
Mean Temperature 47 °F -  
Max Temperature 55 °F 75 °F 91 °F (1963)
Min Temperature 39 °F 49 °F 30 °F (1952)
Degree Days  
Heating Degree Days 18    
Moisture  
Dew Point 39 °F    
Average Humidity 70    
Maximum Humidity 93    
Minimum Humidity 45    
Precipitation  
Precipitation 0.00 in - - ()
Sea Level Pressure  
Sea Level Pressure 30.25 in    
Wind  
Wind Speed 7 mph (North)    
Max Wind Speed 12 mph    
Max Gust Speed 16 mph    
Visibility 10 miles    
Events      
Averages and records for this station are not official NWS values.
T = Trace of Precipitation, MM = Missing Value Source: NWS Daily Summary

Daily Weather History Graph

Daily Weather History Graph

Search for Another Location

Airport or City:

Trip Planner

Search our weather history database for the weather conditions in past years. The results will help you decide how hot, cold, wet, or windy it might be!

Date:

Astronomy

Oct. 07, 2012 Rise Set
Actual Time 7:04 AM CDT 6:39 PM CDT
Civil Twilight 6:39 AM CDT 7:04 PM CDT
Nautical Twilight 6:09 AM CDT 7:34 PM CDT
Astronomical Twilight 5:40 AM CDT 8:03 PM CDT
Moon 11:58 PM CDT (10/7) 1:34 PM CDT (10/7)
Length of Visible Light 12h 25m
Length of Day
11h 34m
Waning Gibbous, 56% of the Moon is Illuminated
Oct 7
Waning Gibbous
Oct 8
Last Quarter
Oct 15
New
Oct 21
First Quarter
Oct 29
Full

Hourly Weather History & Observations

Time (CDT) Temp. Windchill Dew Point Humidity Pressure Visibility Wind Dir Wind Speed Gust Speed Precip Events Conditions
12:56 AM 45.0 °F 40.6 °F 39.9 °F 82% 30.24 in 10.0 mi North 8.1 mph - 0.00 in   Overcast
1:56 AM 45.0 °F 39.7 °F 39.9 °F 82% 30.26 in 10.0 mi NNW 10.4 mph - N/A   Overcast
2:56 AM 43.9 °F 37.9 °F 38.8 °F 82% 30.27 in 10.0 mi NNW 11.5 mph - N/A   Overcast
3:56 AM 41.9 °F 36.3 °F 37.9 °F 86% 30.26 in 10.0 mi NNW 9.2 mph - N/A   Partly Cloudy
4:56 AM 41.0 °F 35.8 °F 37.9 °F 89% 30.27 in 10.0 mi NNW 8.1 mph - N/A   Clear
5:56 AM 39.9 °F 34.5 °F 37.9 °F 93% 30.29 in 10.0 mi NNW 8.1 mph - N/A   Clear
6:56 AM 39.9 °F 36.7 °F 37.9 °F 93% 30.29 in 10.0 mi NNW 4.6 mph - N/A   Scattered Clouds
7:56 AM 43.0 °F 38.2 °F 39.9 °F 89% 30.30 in 10.0 mi NNW 8.1 mph - N/A   Clear
8:56 AM 45.9 °F 40.8 °F 37.9 °F 74% 30.30 in 10.0 mi North 10.4 mph - N/A   Clear
9:56 AM 47.8 °F - 34.9 °F 61% 30.31 in 10.0 mi NNE 10.4 mph 16.1 mph N/A   Clear
10:56 AM 48.9 °F - 34.9 °F 58% 30.31 in 10.0 mi NNE 11.5 mph - N/A   Clear
11:56 AM 50.9 °F - 36.0 °F 57% 30.30 in 10.0 mi NNE 8.1 mph - N/A   Clear
12:56 PM 52.9 °F - 36.0 °F 53% 30.29 in 10.0 mi North 6.9 mph - N/A   Clear
1:56 PM 54.0 °F - 34.0 °F 47% 30.26 in 10.0 mi North 8.1 mph - N/A   Clear
2:56 PM 55.9 °F - 34.9 °F 45% 30.24 in 10.0 mi NNE 8.1 mph - N/A   Clear
3:56 PM 54.9 °F - 36.0 °F 49% 30.22 in 10.0 mi North 6.9 mph - N/A   Clear
4:56 PM 54.9 °F - 36.9 °F 51% 30.22 in 10.0 mi NNW 3.5 mph - N/A   Clear
5:56 PM 54.0 °F - 36.9 °F 52% 30.21 in 10.0 mi Calm Calm - N/A   Clear
6:56 PM 52.9 °F - 39.9 °F 61% 30.19 in 10.0 mi Calm Calm - N/A   Partly Cloudy
7:56 PM 52.9 °F - 43.0 °F 69% 30.21 in 10.0 mi Calm Calm - N/A   Scattered Clouds
8:56 PM 52.0 °F - 41.9 °F 69% 30.21 in 10.0 mi Calm Calm - N/A   Mostly Cloudy
9:56 PM 50.9 °F - 43.0 °F 74% 30.22 in 10.0 mi Variable 3.5 mph - N/A   Overcast
10:56 PM 50.9 °F - 45.9 °F 83% 30.22 in 10.0 mi NW 3.5 mph - 0.00 in   Overcast
11:56 PM 50.0 °F - 46.9 °F 89% 30.22 in 10.0 mi Calm Calm - 0.00 in   Overcast